Find Starlink 4002

NORAD ID: 52612 Int'l Des: 2022-052 Owner: SPXS Country: US Constellation: starlink operational
LEOCIRCULAR

現在のビュー

3D地球を読み込み中...

About Starlink 4002

Starlink 4002 (NORAD 52612) is a starlink constellation satellite (v1.5) launched May 14, 2022 by SPXS of US. It operates in LEO, CIRCULAR orbit with a mass of 297.00 kg.

次回通過

Passes for default location (London). Set your location on the main map for personalized predictions.

高度履歴

Loading altitude history...

軌道要素

1 52612U 22052Q 26263.31102736 .00000526 00000-0 26702-4 0 9993
2 52612 53.1599 116.2626 0001218 92.2127 267.9015 15.34385551240364
Epoch: Sep 20, 2026 • Age: 16 hours

現在のステータス

高度 467.4 km
遠地点 / 近地点 N/A
速度 7.64 km/s
衛星直下点 48.51°N, 117.82°W
打ち上げ日 May 14, 2022
運用期間 4.3 years
タイプ internet

技術仕様

分類 Payload
質量 297.00 kg
乾燥質量 275.00 kg
長さ 0.20 m
スパン 9.00 m
形状 ? Box + pan
製造者 SPXS
バスタイプ Starlink
フェーズステータス In Orbit
所有者/国 SPXS/US

Most Searched